Terminal Aerodrome Forecast
Issued by NWS Duluth, MN

Home | Current Version | Previous Version | Text Only | Print | Product List | Glossary On
Versions: 1 2 3 4 5 6 7 8 9 10 11 12 13 14 15 16
000
FTUS43 KDLH 212300
TAFINL
TAF
KINL 212330Z 2200/2224 32013G17KT P6SM OVC040
     FM220300 33007KT P6SM SCT035
      TEMPO 2203/2206 BKN035
     FM221600 33010KT P6SM FEW025=

USA.gov is the U.S. government's official web portal to all federal, state and local government web resources and services.